Погода в Шиназе

Россия / Республика Дагестан     41°37′09″N   47°22′33″E
темп.,
°C
ветер,
м/с
пор.,
м/с
влажн.,
%
обл.,
%
осадки,
мм/ч
давл.,
гПа
погр.,
м
26 июня, вс
вс2600:00+11зсз348286 0.4 1013104
03:00+10з3381100 0.8 101233
06:00+12ссв117272 0.1 101198
09:00+15ююв336674 0.9 1010859
12:00+19вюв364554 0.6 10061628
15:00+18в45543 2.3 10061242
18:00+16юв237345 2.9 1007239
21:00+13зюз227798 3.8 101017
27 июня, пн
пн2700:00+10з12782 0.0 101115
03:00+10з22730 0.0 101119
06:00+14с11630 0.0 101158
09:00+18всв22510 0.0 1010771
12:00+20в445111 0.1 10091564
15:00+19в43613 1.3 10101259
18:00+15в228326 1.0 1011411
21:00+12зюз32865 2.1 101322
28 июня, вт
вт2800:00+11з337834 0.3 101330
03:00+11з33720 0.3 101230
06:00+14з33660 0.0 101177
09:00+21ююв03360 0.0 10081596
12:00+20вюв34490 0.3 10091652
15:00+19в34555 1.4 10091493
18:00+16вюв227618 0.8 1012288
21:00+11в119312 1.0 101514
29 июня, ср
ср2900:00+9вюв019860 0.1 101612
03:00+11в119481 0.1 1015199
06:00+11в119386 0.1 1016278
09:00+14в228150 0.3 1015609
12:00+15в337572 0.9 1015769
15:00+15в327265 2.0 1015755
18:00+14в227042 0.7 1016424
21:00+9зсз11893 1.1 101813
30 июня, чт
чт3000:00+8юз00900 0.2 101711
03:00+8з12890 0.3 101713
06:00+12з11790 0.0 1016155
09:00+16вюв226445 0.1 10141009
12:00+17вюв226748 1.0 1013938
15:00+15в227452 2.0 1013848
18:00+13вюв228251 0.3 1015294
21:00+10юз11862 0.3 101616